Weather History for Mobile Downtown, AL

Change the Weather History Date:

Thursday, March 7, 2013

  Actual Average Record
Temperature  
Mean Temperature 47 °F -  
Max Temperature 59 °F 65 °F 78 °F (2004)
Min Temperature 35 °F 46 °F 35 °F (2013)
Degree Days  
Heating Degree Days 18    
Moisture  
Dew Point 35 °F    
Average Humidity 65    
Maximum Humidity 92    
Minimum Humidity 41    
Precipitation  
Precipitation 0.00 in - - ()
Sea Level Pressure  
Sea Level Pressure 30.29 in    
Wind  
Wind Speed 6 mph (NNW)    
Max Wind Speed 14 mph    
Max Gust Speed 17 mph    
Visibility 10 miles    
Events      
Averages and records for this station are not official NWS values.
T = Trace of Precipitation, MM = Missing Value Source: NWS Daily Summary

Daily Weather History Graph

Daily Weather History Graph

Search for Another Location

Airport:

Trip Planner

Search our weather history database for the weather conditions in past years. The results will help you decide how hot, cold, wet, or windy it might be!

Date:

Astronomy

Mar. 07, 2013 Rise Set
Actual Time 6:11 AM CST 5:55 PM CST
Civil Twilight 5:47 AM CST 6:19 PM CST
Nautical Twilight 5:19 AM CST 6:47 PM CST
Astronomical Twilight 4:51 AM CST 7:15 PM CST
Moon 2:56 AM CST (3/7) 1:56 PM CST (3/7)
Length of Visible Light 12h 32m
Length of Day
11h 43m
Waning Crescent, 20% of the Moon is Illuminated
Mar 7
Waning Crescent
Mar 11
New
Mar 19
First Quarter
Mar 27
Full
Apr 2
Last Quarter

Hourly Weather History & Observations

Time (CST) Temp. Windchill Dew Point Humidity Pressure Visibility Wind Dir Wind Speed Gust Speed Precip Events Conditions
12:53 AM 37.9 °F 34.4 °F 32.0 °F 79% 30.30 in 10.0 mi NNW 4.6 mph - N/A   Clear
1:53 AM 37.0 °F 34.5 °F 30.9 °F 79% 30.29 in 10.0 mi NNW 3.5 mph - N/A   Clear
2:53 AM 36.0 °F 32.1 °F 30.9 °F 82% 30.28 in 10.0 mi NW 4.6 mph - N/A   Clear
3:24 AM 35.6 °F 32.8 °F 30.2 °F 81% 30.27 in 10.0 mi NNW 3.5 mph - N/A   Clear
3:53 AM 41.0 °F 33.5 °F 32.0 °F 70% 30.27 in 10.0 mi NNE 13.8 mph 17.3 mph N/A   Clear
4:53 AM 42.1 °F 35.2 °F 32.0 °F 67% 30.27 in 10.0 mi NNE 12.7 mph 17.3 mph N/A   Clear
5:53 AM 42.1 °F 37.1 °F 30.9 °F 65% 30.30 in 10.0 mi NNE 8.1 mph - N/A   Clear
6:53 AM 39.0 °F 35.7 °F 33.1 °F 79% 30.33 in 10.0 mi NW 4.6 mph - N/A   Clear
7:53 AM 44.1 °F 40.8 °F 32.0 °F 63% 30.36 in 10.0 mi North 5.8 mph - N/A   Clear
8:53 AM 46.0 °F 41.9 °F 30.9 °F 56% 30.37 in 10.0 mi NE 8.1 mph - N/A   Clear
9:53 AM 48.9 °F - 30.9 °F 50% 30.35 in 10.0 mi NE 10.4 mph - N/A   Clear
10:53 AM 52.0 °F - 32.0 °F 47% 30.36 in 10.0 mi NE 8.1 mph - N/A   Clear
11:53 AM 54.0 °F - 33.1 °F 45% 30.33 in 10.0 mi East 6.9 mph - N/A   Clear
12:53 PM 55.0 °F - 34.0 °F 45% 30.30 in 10.0 mi East 6.9 mph - N/A   Clear
1:53 PM 57.0 °F - 36.0 °F 45% 30.27 in 10.0 mi ESE 5.8 mph - N/A   Clear
2:53 PM 59.0 °F - 35.1 °F 41% 30.26 in 10.0 mi ENE 3.5 mph - N/A   Clear
3:53 PM 57.9 °F - 37.9 °F 47% 30.25 in 10.0 mi South 4.6 mph - N/A   Clear
4:53 PM 57.0 °F - 39.9 °F 53% 30.25 in 10.0 mi South 3.5 mph - N/A   Clear
5:53 PM 54.0 °F - 41.0 °F 62% 30.26 in 10.0 mi WSW 5.8 mph - N/A   Clear
6:53 PM 52.0 °F - 42.1 °F 69% 30.27 in 10.0 mi WSW 5.8 mph - N/A   Clear
7:53 PM 50.0 °F - 42.1 °F 74% 30.27 in 10.0 mi WSW 6.9 mph - N/A   Clear
8:53 PM 48.0 °F - 42.1 °F 80% 30.29 in 10.0 mi WSW 6.9 mph - N/A   Clear
9:53 PM 48.0 °F - 42.1 °F 80% 30.28 in 10.0 mi WSW 5.8 mph - N/A   Clear
10:53 PM 46.9 °F - 42.1 °F 83% 30.28 in 10.0 mi WNW 4.6 mph - N/A   Clear
11:53 PM 42.1 °F 40.2 °F 39.9 °F 92% 30.27 in 10.0 mi West 3.5 mph - N/A   Clear